DL1GHN-6 Weather Reports


time (UTC)temp
C
wind
direction
speed
KPH
gust
KPH
rain 1hr
cm
rain 24hr
cm
rain mn
cm
humidity
%
barometer
mb
20260510234431 15 188 0.0 3.2 0.00 0.05 0.00 83 1005.8
20260510233933 15 184 1.6 3.2 0.00 0.05 0.00 83 1005.9
20260510233431 15 196 0.0 3.2 0.00 0.05 0.00 83 1005.9
20260510232931 15 184 1.6 3.2 0.00 0.05 0.00 83 1005.9
20260510232432 15 164 1.6 4.8 0.00 0.05 0.00 82 1006.0
20260510231931 15 160 1.6 3.2 0.00 0.05 0.00 82 1006.0
20260510231432 15 209 3.2 6.4 0.00 0.05 0.00 82 1006.1
20260510230931 15 214 3.2 6.4 0.00 0.05 0.00 82 1006.1
20260510230431 15 198 3.2 4.8 0.00 0.05 0.00 83 1006.1
20260510225932 15 188 0.0 4.8 0.00 0.05 0.00 83 1006.1
20260510225432 15 216 1.6 6.4 0.00 0.05 0.00 83 1006.2
20260510224932 15 225 3.2 6.4 0.00 0.05 0.00 83 1006.2
20260510224432 15 158 0.0 6.4 0.00 0.05 0.00 83 1006.2
20260510223932 15 158 0.0 3.2 0.00 0.05 0.00 83 1006.2
20260510223431 15 157 1.6 4.8 0.00 0.05 0.00 83 1006.1
20260510222933 15 167 3.2 4.8 0.00 0.05 0.00 83 1006.2
20260510222432 15 213 1.6 4.8 0.00 0.05 0.00 83 1006.3
20260510221933 15 216 1.6 8.0 0.00 0.05 0.00 83 1006.4
20260510221432 15 187 1.6 3.2 0.00 0.05 0.00 83 1006.4
20260510220933 15 193 0.0 6.4 0.00 0.05 0.00 83 1006.4
20260510220433 15 194 3.2 6.4 0.00 0.05 0.00 83 1006.5
20260510215933 15 261 1.6 4.8 0.00 0.05 0.05 83 1006.5
20260510215432 15 205 3.2 4.8 0.00 0.05 0.05 83 1006.6
20260510214933 15 173 1.6 4.8 0.00 0.05 0.05 83 1006.6
20260510214433 15 168 0.0 1.6 0.00 0.05 0.05 83 1006.6
20260510213932 15 189 1.6 4.8 0.00 0.05 0.05 83 1006.7
20260510213433 15 182 1.6 8.0 0.00 0.05 0.05 83 1006.8
20260510212931 15 193 3.2 6.4 0.00 0.05 0.05 83 1006.8
20260510212433 15 182 3.2 8.0 0.00 0.05 0.05 84 1006.9
20260510211933 15 225 3.2 8.0 0.00 0.05 0.05 84 1006.9
20260510211431 15 180 1.6 6.4 0.00 0.05 0.05 85 1007.1
20260510210932 15 179 0.0 3.2 0.00 0.05 0.05 85 1007.0
20260510210431 15 174 1.6 3.2 0.00 0.05 0.05 85 1007.0
20260510205931 15 200 1.6 4.8 0.00 0.05 0.05 85 1007.1
20260510205431 15 181 1.6 3.2 0.00 0.05 0.05 85 1007.1
20260510204932 15 161 1.6 1.6 0.00 0.05 0.05 85 1007.2
20260510204432 15 149 0.0 0.0 0.00 0.05 0.05 85 1007.3
20260510203931 15 149 0.0 1.6 0.00 0.05 0.05 85 1007.2
20260510203432 15 150 0.0 1.6 0.00 0.05 0.05 85 1007.2
20260510202931 15 150 0.0 1.6 0.00 0.05 0.05 84 1007.3
20260510202432 15 150 0.0 0.0 0.00 0.05 0.05 84 1007.3
20260510201932 15 150 0.0 1.6 0.00 0.05 0.05 85 1007.3
20260510201433 15 153 1.6 4.8 0.00 0.05 0.05 85 1007.3
20260510200932 15 219 0.0 3.2 0.00 0.05 0.05 85 1007.3
20260510200432 15 221 1.6 4.8 0.00 0.05 0.05 85 1007.3
20260510195933 15 173 1.6 3.2 0.00 0.05 0.05 85 1007.3
20260510195433 15 145 1.6 3.2 0.00 0.05 0.05 85 1007.3
20260510194932 15 145 0.0 1.6 0.00 0.05 0.05 84 1007.4
20260510194432 15 154 0.0 1.6 0.00 0.05 0.05 84 1007.4
20260510193933 15 154 0.0 1.6 0.00 0.05 0.05 84 1007.5
20260510193432 15 147 1.6 3.2 0.00 0.05 0.05 84 1007.6
20260510192933 15 188 0.0 1.6 0.00 0.05 0.05 83 1007.6
20260510192432 15 178 0.0 1.6 0.00 0.05 0.05 83 1007.5
20260510191932 15 155 0.0 3.2 0.00 0.05 0.05 82 1007.4
20260510191432 16 172 0.0 1.6 0.00 0.05 0.05 82 1007.4
20260510190933 16 170 0.0 1.6 0.00 0.05 0.05 82 1007.3
20260510190431 16 181 1.6 3.2 0.00 0.05 0.05 82 1007.3
20260510185931 16 182 0.0 6.4 0.00 0.05 0.05 82 1007.2
20260510185431 16 203 1.6 4.8 0.00 0.05 0.05 82 1007.1
20260510184932 16 159 3.2 4.8 0.00 0.05 0.05 82 1007.0
20260510184432 16 178 1.6 6.4 0.00 0.05 0.05 82 1007.0
20260510183931 16 172 3.2 8.0 0.00 0.05 0.05 82 1006.9
20260510183432 16 175 1.6 4.8 0.00 0.05 0.05 82 1006.9
20260510182931 16 221 1.6 6.4 0.00 0.05 0.05 82 1006.8
20260510182432 16 221 1.6 8.0 0.00 0.05 0.05 82 1006.7
20260510181932 17 141 4.8 11.3 0.00 0.05 0.05 82 1006.7
20260510181433 17 192 6.4 9.7 0.00 0.05 0.05 81 1006.7
20260510180931 17 193 4.8 11.3 0.00 0.05 0.05 81 1006.7
20260510180432 17 196 4.8 8.0 0.00 0.05 0.05 81 1006.7
20260510175932 17 170 3.2 6.4 0.00 0.05 0.05 81 1006.6
20260510175433 17 162 6.4 9.7 0.00 0.05 0.05 81 1006.7
20260510174932 17 184 6.4 14.5 0.00 0.05 0.05 81 1006.8
20260510174433 17 184 6.4 12.9 0.00 0.05 0.05 81 1006.9
20260510173933 17 158 4.8 12.9 0.00 0.05 0.05 81 1006.9
20260510173432 17 149 8.0 14.5 0.00 0.05 0.05 81 1006.9
20260510172932 17 176 3.2 11.3 0.03 0.05 0.05 81 1007.0
20260510172431 17 195 8.0 16.1 0.03 0.05 0.05 81 1007.0
20260510171932 17 198 4.8 11.3 0.03 0.05 0.05 81 1007.1
20260510171431 17 184 4.8 14.5 0.03 0.05 0.05 81 1007.2
20260510170931 17 213 6.4 12.9 0.03 0.05 0.05 81 1007.3
20260510170431 17 179 6.4 16.1 0.03 0.05 0.05 81 1007.3
20260510165932 17 191 4.8 12.9 0.03 0.05 0.05 81 1007.4
20260510165432 17 201 6.4 14.5 0.03 0.05 0.05 82 1007.5
20260510164932 17 165 3.2 12.9 0.03 0.05 0.05 82 1007.4
20260510164432 17 250 4.8 11.3 0.03 0.05 0.05 82 1007.5
20260510163933 17 190 4.8 11.3 0.05 0.05 0.05 82 1007.5
20260510163433 17 180 4.8 11.3 0.05 0.05 0.05 82 1007.5
20260510162932 17 148 6.4 12.9 0.03 0.03 0.03 81 1007.6
20260510162433 17 148 6.4 12.9 0.03 0.03 0.03 81 1007.5
20260510161931 17 169 6.4 12.9 0.03 0.03 0.03 81 1007.5
20260510161431 17 156 6.4 14.5 0.03 0.03 0.03 80 1007.6
20260510160932 17 194 6.4 11.3 0.03 0.03 0.03 80 1007.5
20260510160432 17 190 4.8 9.7 0.03 0.03 0.03 80 1007.5
20260510155931 17 231 3.2 8.0 0.03 0.03 0.03 79 1007.5
20260510155431 17 177 1.6 6.4 0.03 0.03 0.03 78 1007.5
20260510154932 17 154 3.2 16.1 0.03 0.03 0.03 77 1007.5
20260510154432 17 184 6.4 16.1 0.03 0.03 0.03 76 1007.6
20260510153932 18 145 9.7 27.4 0.00 0.00 0.00 74 1007.5
20260510153433 18 167 14.5 20.9 0.00 0.00 0.00 73 1007.5
20260510152932 19 173 8.0 19.3 0.00 0.00 0.00 70 1007.5
20260510152433 19 156 9.7 19.3 0.00 0.00 0.00 67 1007.4
20260510151933 20 188 9.7 27.4 0.00 0.00 0.00 66 1007.4
20260510151432 20 211 8.0 19.3 0.00 0.00 0.00 65 1007.4
20260510150932 20 193 9.7 20.9 0.00 0.00 0.00 65 1007.3
20260510150432 20 149 8.0 17.7 0.00 0.00 0.00 63 1007.3
20260510145932 20 162 9.7 19.3 0.00 0.00 0.00 62 1007.3
20260510145433 20 227 8.0 16.1 0.00 0.00 0.00 62 1007.3
20260510144931 21 209 6.4 12.9 0.00 0.00 0.00 62 1007.3
20260510144432 21 181 4.8 12.9 0.00 0.00 0.00 63 1007.3
20260510143931 21 229 8.0 12.9 0.00 0.00 0.00 63 1007.3
20260510143431 21 197 6.4 11.3 0.00 0.00 0.00 63 1007.4
20260510142931 21 178 6.4 12.9 0.00 0.00 0.00 64 1007.4
20260510142432 21 228 4.8 9.7 0.00 0.00 0.00 64 1007.5
20260510141931 21 251 6.4 14.5 0.00 0.00 0.00 63 1007.5
20260510141432 21 210 4.8 9.7 0.00 0.00 0.00 62 1007.5
20260510140931 21 297 4.8 8.0 0.00 0.00 0.00 64 1007.6
20260510140431 21 206 4.8 9.7 0.00 0.00 0.00 66 1007.6
20260510135932 21 220 6.4 12.9 0.00 0.00 0.00 61 1007.6
20260510135432 21 176 3.2 8.0 0.00 0.00 0.00 63 1007.7
20260510134933 21 261 4.8 9.7 0.00 0.00 0.00 62 1007.7
20260510134433 21 310 6.4 11.3 0.00 0.00 0.00 62 1007.7
20260510133932 21 292 4.8 11.3 0.00 0.00 0.00 63 1007.8
20260510133433 21 237 6.4 12.9 0.00 0.00 0.00 62 1007.8
20260510132932 21 234 4.8 11.3 0.00 0.00 0.00 62 1007.9
20260510132432 21 270 4.8 11.3 0.00 0.00 0.00 62 1007.9
20260510131932 21 258 6.4 9.7 0.00 0.00 0.00 63 1007.9
20260510131431 21 271 3.2 11.3 0.00 0.00 0.00 64 1007.9
20260510130932 21 232 4.8 11.3 0.00 0.00 0.00 63 1008.0
20260510130431 21 215 8.0 11.3 0.00 0.00 0.00 65 1008.0
20260510125931 21 259 6.4 9.7 0.00 0.00 0.00 63 1008.0
20260510125432 21 207 8.0 11.3 0.00 0.00 0.00 64 1008.0
20260510124932 21 242 4.8 12.9 0.00 0.00 0.00 63 1008.0
20260510124432 21 213 3.2 9.7 0.00 0.00 0.00 64 1008.1
20260510123931 21 247 4.8 11.3 0.00 0.00 0.00 64 1008.0
20260510123431 21 182 3.2 8.0 0.00 0.00 0.00 62 1008.0
20260510122933 21 256 4.8 9.7 0.00 0.00 0.00 62 1008.1
20260510122431 21 308 3.2 6.4 0.00 0.00 0.00 62 1008.1
20260510121932 21 296 4.8 8.0 0.00 0.00 0.00 65 1008.1
20260510121433 21 215 1.6 9.7 0.00 0.00 0.00 64 1008.2
20260510120932 21 234 8.0 11.3 0.00 0.00 0.00 64 1008.2
20260510120432 21 232 4.8 8.0 0.00 0.00 0.00 62 1008.2
20260510115933 21 347 0.0 11.3 0.00 0.00 0.00 62 1008.3
20260510115433 21 274 3.2 8.0 0.00 0.00 0.00 65 1008.3
20260510114932 21 309 3.2 11.3 0.00 0.00 0.00 64 1008.3
20260510114431 21 277 1.6 6.4 0.00 0.00 0.00 62 1008.4
20260510113933 21 336 3.2 8.0 0.00 0.00 0.00 62 1008.4
20260510113431 21 214 3.2 8.0 0.00 0.00 0.00 60 1008.5
20260510112932 21 263 3.2 8.0 0.00 0.00 0.00 66 1008.6
20260510112431 21 271 4.8 9.7 0.00 0.00 0.00 64 1008.6
20260510111931 21 300 0.0 4.8 0.00 0.00 0.00 61 1008.6
20260510111432 21 206 3.2 6.4 0.00 0.00 0.00 64 1008.7
20260510110932 21 289 3.2 8.0 0.00 0.00 0.00 64 1008.7
20260510110432 21 256 4.8 8.0 0.00 0.00 0.00 64 1008.7
20260510105932 21 285 3.2 6.4 0.00 0.00 0.00 65 1008.8
20260510105432 21 205 0.0 4.8 0.00 0.00 0.00 67 1008.9
20260510104932 21 216 6.4 8.0 0.00 0.00 0.00 62 1009.0
20260510104433 21 290 3.2 8.0 0.00 0.00 0.00 62 1009.0
20260510103932 21 263 1.6 8.0 0.00 0.00 0.00 63 1009.1
20260510103432 20 290 1.6 6.4 0.00 0.00 0.00 67 1009.1
20260510102932 20 266 3.2 6.4 0.00 0.00 0.00 64 1009.1
20260510102432 20 267 3.2 6.4 0.00 0.00 0.00 67 1009.2
20260510101933 20 269 1.6 6.4 0.00 0.00 0.00 67 1009.2
20260510101433 20 291 4.8 8.0 0.00 0.00 0.00 67 1009.2
20260510100932 20 292 4.8 8.0 0.00 0.00 0.00 68 1009.2
20260510100433 20 233 4.8 11.3 0.00 0.00 0.00 67 1009.3
20260510095931 20 269 3.2 4.8 0.00 0.00 0.00 69 1009.4
20260510095431 20 293 1.6 6.4 0.00 0.00 0.00 67 1009.5
20260510094931 20 273 3.2 8.0 0.00 0.00 0.00 68 1009.5
20260510094431 20 287 3.2 8.0 0.00 0.00 0.00 68 1009.5
20260510093932 20 313 6.4 9.7 0.00 0.00 0.00 67 1009.5
20260510093431 20 301 1.6 6.4 0.00 0.00 0.00 70 1009.6
20260510092932 20 338 4.8 8.0 0.00 0.00 0.00 72 1009.6
20260510092431 19 281 3.2 8.0 0.00 0.00 0.00 73 1009.6
20260510091931 19 261 1.6 8.0 0.00 0.00 0.00 74 1009.6
20260510091432 18 351 4.8 8.0 0.00 0.00 0.00 72 1009.7
20260510090932 18 28 3.2 6.4 0.00 0.00 0.00 71 1009.7
20260510090432 18 290 1.6 4.8 0.00 0.00 0.00 74 1009.7
20260510085932 18 281 4.8 6.4 0.00 0.00 0.00 75 1009.7
20260510085432 18 313 3.2 8.0 0.00 0.00 0.00 73 1009.8
20260510084932 18 276 3.2 8.0 0.00 0.00 0.00 73 1009.9
20260510084431 18 348 1.6 8.0 0.00 0.00 0.00 75 1009.9
20260510083932 17 18 3.2 6.4 0.00 0.00 0.00 74 1009.9
20260510083432 17 337 1.6 4.8 0.00 0.00 0.00 78 1010.0
20260510082932 17 294 0.0 4.8 0.00 0.00 0.00 78 1010.0
20260510082431 17 113 1.6 3.2 0.00 0.00 0.00 79 1010.1
20260510081931 17 12 1.6 4.8 0.00 0.00 0.00 78 1010.1
20260510081432 16 58 1.6 3.2 0.00 0.00 0.00 78 1010.2
20260510080932 16 336 1.6 4.8 0.00 0.00 0.00 80 1010.2
20260510080432 16 355 3.2 6.4 0.00 0.00 0.00 81 1010.2
20260510075932 16 247 0.0 4.8 0.00 0.00 0.00 80 1010.2
20260510075431 16 344 3.2 4.8 0.00 0.00 0.00 81 1010.2
20260510074932 16 289 3.2 6.4 0.00 0.00 0.00 81 1010.2
20260510074431 15 267 1.6 3.2 0.00 0.00 0.00 82 1010.3
20260510073932 15 360 1.6 6.4 0.00 0.00 0.00 83 1010.3
20260510073432 15 329 1.6 4.8 0.00 0.00 0.00 84 1010.3
20260510072933 14 125 0.0 1.6 0.00 0.00 0.00 85 1010.3
20260510072431 14 221 1.6 1.6 0.00 0.00 0.00 86 1010.3
20260510071933 14 141 0.0 3.2 0.00 0.00 0.00 85 1010.3
20260510071433 13 111 1.6 3.2 0.00 0.00 0.00 86 1010.4
20260510070933 13 242 1.6 4.8 0.00 0.00 0.00 86 1010.5
20260510070432 13 331 1.6 1.6 0.00 0.00 0.00 87 1010.6
20260510065931 13 355 1.6 4.8 0.00 0.00 0.00 87 1010.6
20260510065433 13 257 0.0 3.2 0.00 0.00 0.00 86 1010.7
20260510064931 13 273 0.0 3.2 0.00 0.00 0.00 87 1010.6
20260510064432 13 318 3.2 6.4 0.00 0.00 0.00 88 1010.6
20260510063931 13 329 1.6 3.2 0.00 0.00 0.00 87 1010.6
20260510063431 13 312 1.6 6.4 0.00 0.00 0.00 88 1010.6
20260510062931 13 323 3.2 6.4 0.00 0.00 0.00 88 1010.6
20260510062431 12 266 3.2 6.4 0.00 0.00 0.00 88 1010.5
20260510061931 12 342 3.2 6.4 0.00 0.00 0.00 89 1010.5
20260510061431 12 281 1.6 4.8 0.00 0.00 0.00 90 1010.5
20260510060932 12 277 1.6 4.8 0.00 0.00 0.00 90 1010.5
20260510060431 12 323 1.6 4.8 0.00 0.00 0.00 91 1010.5
20260510055932 12 195 0.0 1.6 0.00 0.00 0.00 91 1010.5
20260510055431 11 155 0.0 1.6 0.00 0.00 0.00 91 1010.5
20260510054931 11 157 1.6 1.6 0.00 0.00 0.00 91 1010.6
20260510054431 11 182 0.0 1.6 0.00 0.00 0.00 91 1010.6
20260510053932 11 107 0.0 0.0 0.00 0.00 0.00 91 1010.7
20260510053431 11 107 0.0 0.0 0.00 0.00 0.00 92 1010.7
20260510052932 11 131 0.0 0.0 0.00 0.00 0.00 92 1010.7
20260510052432 10 130 0.0 1.6 0.00 0.00 0.00 91 1010.8
20260510051932 10 157 0.0 3.2 0.00 0.00 0.00 91 1010.8
20260510051431 10 170 1.6 3.2 0.00 0.00 0.00 91 1010.9
20260510050932 10 128 0.0 3.2 0.00 0.00 0.00 91 1010.9
20260510050432 9 102 0.0 1.6 0.00 0.00 0.00 91 1010.8
20260510045931 9 5 0.0 3.2 0.00 0.00 0.00 91 1010.9
20260510045432 8 49 1.6 3.2 0.00 0.00 0.00 90 1010.9
20260510044932 9 20 0.0 1.6 0.00 0.00 0.00 90 1010.9
20260510044432 9 31 0.0 3.2 0.00 0.00 0.00 90 1010.8
20260510043931 9 112 0.0 3.2 0.00 0.00 0.00 90 1010.9
20260510043432 9 122 0.0 3.2 0.00 0.00 0.00 90 1011.0
20260510042931 9 167 0.0 0.0 0.00 0.00 0.00 90 1011.0
20260510042432 9 167 0.0 0.0 0.00 0.00 0.00 90 1011.0
20260510041931 10 167 0.0 3.2 0.00 0.00 0.00 91 1011.0
20260510041432 9 151 1.6 3.2 0.00 0.00 0.00 90 1010.9
20260510040931 9 163 4.8 6.4 0.00 0.00 0.00 91 1010.9
20260510040431 9 168 3.2 4.8 0.00 0.00 0.00 90 1010.9
20260510035931 9 179 3.2 4.8 0.00 0.00 0.00 90 1010.9
20260510035432 8 137 0.0 3.2 0.00 0.00 0.00 89 1010.9
20260510034931 8 123 0.0 1.6 0.00 0.00 0.00 89 1011.0
20260510034431 9 123 0.0 1.6 0.00 0.00 0.00 90 1010.9
20260510033932 9 123 0.0 0.0 0.00 0.00 0.00 90 1010.9
20260510033433 9 123 0.0 0.0 0.00 0.00 0.00 90 1010.9
20260510032932 9 123 0.0 1.6 0.00 0.00 0.00 90 1010.9
20260510032433 9 123 0.0 3.2 0.00 0.00 0.00 90 1011.0
20260510031933 9 84 0.0 4.8 0.00 0.00 0.00 89 1011.0
20260510031203 9 88 1.6 4.8 0.00 0.00 0.00 89 1011.0
20260510030702 9 139 1.6 4.8 0.00 0.00 0.00 89 1011.1
20260510030201 9 230 1.6 4.8 0.00 0.00 0.00 89 1011.0
20260510025703 9 142 0.0 0.0 0.00 0.00 0.00 89 1010.9
20260510025202 9 142 0.0 1.6 0.00 0.00 0.00 89 1011.0
20260510024702 9 142 0.0 3.2 0.00 0.00 0.00 89 1011.1
20260510024202 9 129 0.0 1.6 0.00 0.00 0.00 89 1011.1
20260510023702 9 129 1.6 3.2 0.00 0.00 0.00 89 1011.2
20260510023201 9 142 0.0 3.2 0.00 0.00 0.00 89 1011.2
20260510022702 9 170 0.0 0.0 0.00 0.00 0.00 89 1011.4
20260510022202 9 170 0.0 1.6 0.00 0.00 0.00 89 1011.3
20260510021702 9 185 1.6 3.2 0.00 0.00 0.00 89 1011.3
20260510021202 9 186 1.6 3.2 0.00 0.00 0.00 88 1011.3
20260510020702 9 144 0.0 1.6 0.00 0.00 0.00 89 1011.2
20260510020202 10 33 0.0 1.6 0.00 0.00 0.00 89 1011.2
20260510015701 10 28 0.0 1.6 0.00 0.00 0.00 89 1011.2
20260510015202 10 80 0.0 1.6 0.00 0.00 0.00 89 1011.1
20260510014702 10 80 0.0 1.6 0.00 0.00 0.00 89 1011.2
20260510014201 10 127 0.0 0.0 0.00 0.00 0.00 88 1011.2
20260510013702 9 126 0.0 3.2 0.00 0.00 0.00 88 1011.2
20260510013203 10 117 0.0 0.0 0.00 0.00 0.00 88 1011.2
20260510012703 10 117 0.0 1.6 0.00 0.00 0.00 88 1011.2
20260510012202 10 148 0.0 0.0 0.00 0.00 0.00 88 1011.2
20260510011702 10 148 0.0 1.6 0.00 0.00 0.00 88 1011.3
20260510011201 10 148 0.0 1.6 0.00 0.00 0.00 88 1011.4
20260510010701 10 148 1.6 3.2 0.00 0.00 0.00 88 1011.5
20260510010202 10 158 0.0 0.0 0.00 0.00 0.00 88 1011.5
20260510005702 10 159 0.0 0.0 0.00 0.00 0.00 88 1011.6
20260510005202 10 158 0.0 1.6 0.00 0.00 0.00 87 1011.6
20260510004702 10 159 0.0 1.6 0.00 0.00 0.00 88 1011.7
20260510004202 10 159 0.0 1.6 0.00 0.00 0.00 88 1011.8
20260510003702 10 160 0.0 1.6 0.00 0.00 0.00 88 1011.9
20260510003202 10 159 1.6 3.2 0.00 0.00 0.00 87 1012.0
20260510002701 10 136 0.0 0.0 0.00 0.00 0.00 87 1012.0
20260510002202 10 136 0.0 1.6 0.00 0.00 0.00 87 1012.0
20260510001703 10 109 0.0 0.0 0.00 0.00 0.00 87 1012.1
20260510001202 10 109 0.0 1.6 0.00 0.00 0.00 87 1012.1
20260510000702 10 129 0.0 0.0 0.00 0.00 0.00 87 1012.2
20260510000204 10 129 0.0 0.0 0.00 0.00 0.00 87 1012.2
20260509235701 10 129 0.0 0.0 0.00 0.00 0.00 87 1012.3
20260509235203 10 129 0.0 3.2 0.00 0.00 0.00 87 1012.4